Location: La Chapelle
(48.3135°N, 1.3085°W)
Time: 08:11:54
(UTC+00:00)

Cosmos 2242 Rocket - Pass Details

Date: 03 March 2021
Orbit: 617 x 652 km, 82.5° (Epoch: 11 April)

Event Time Altitude Azimuth Distance (km) Brightness Sun altitude
Rises 19:04:50 0° 353° (N) 2,962 7.2 -12.8°
Reaches altitude 10° 19:07:08 10° 357° (N) 2,043 6.3 -13.2°
Maximum altitude 19:11:37 61° 78° (ENE) 722 3.6 -13.9°
Drops below altitude 10° 19:16:01 10° 159° (SSE) 2,004 5.9 -14.6°
Sets 19:18:15 0° 163° (SSE) 2,901 6.8 -15.0°
